Погода в Тукакасе

Венесуэла     10°46′04″N   68°19′40″W
темп.,
°C
ветер,
м/с
пор.,
м/с
влажн.,
%
обл.,
%
осадки,
мм/ч
давл.,
гПа
погр.,
м
16 мая, пн
пн1623:00+26всв578895 0.1 1013572
02:00+26всв598898 0.3 1011652
05:00+27всв798994 0.3 1011662
08:00+27вюв248599 0.5 1013427
11:00+29всв5476100 0.0 1013630
14:00+28в8978100 0.1 1011702
17:00+27вюв448388 0.2 1010423
20:00+27зюз0186100 0.3 101038
17 мая, вт
вт1723:00+27в338694 0.0 1013114
02:00+26всв4590100 1.7 1012187
05:00+26всв5689100 1.0 1012294
08:00+27юв138595 1.4 1014243
11:00+28всв44765 0.0 1014603
14:00+28всв667654 0.0 1011577
17:00+28всв6781100 0.0 1011505
20:00+27в5789100 0.2 1013444
18 мая, ср
ср1823:00+26в4690100 1.1 1015281
02:00+26всв4689100 3.1 1013267
05:00+26всв6888100 2.3 1013321
08:00+27в5885100 3.3 1014496
11:00+28всв6677100 1.0 1014704
14:00+28в6778100 1.0 1012671
17:00+27в5781100 0.4 1012656
20:00+26в4787100 2.2 1013351
19 мая, чт
чт1923:00+26в5889100 0.8 1014487
02:00+26всв6990100 3.0 1012572
05:00+26в5789100 1.1 1012474
08:00+26вюв3488100 1.7 1014360
11:00+28всв447618 0.1 1014625
14:00+29всв777484 0.1 1012479
17:00+27всв568048 0.0 1011452
20:00+26в468466 0.8 1013133
20 мая, пт
пт2023:00+27вюв5780100 0.9 1015297
02:00+26ю228045 1.4 1014192
05:00+24ююз23805 0.0 1014142
08:00+25юз22725 0.0 1015233
11:00+28в3463100 0.0 1015522
14:00+30всв55626 0.0 1013581
17:00+28всв687526 0.0 1012454
20:00+26в710840 0.7 1014375